Weather History for Bemidji, MN

Change the Weather History Date:

Thursday, July 3, 2014

  Actual Average Record
Temperature  
Mean Temperature 59 °F -  
Max Temperature 73 °F 76 °F 89 °F (1959)
Min Temperature 45 °F 55 °F 41 °F (1967)
Degree Days  
Heating Degree Days 6    
Growing Degree Days 9 (Base 50)    
Moisture  
Dew Point 47 °F    
Average Humidity 64    
Maximum Humidity 97    
Minimum Humidity 35    
Precipitation  
Precipitation 0.00 in - - ()
Sea Level Pressure  
Sea Level Pressure 30.17 in    
Wind  
Wind Speed 3 mph (NW)    
Max Wind Speed 9 mph    
Max Gust Speed -    
Visibility 10 miles    
Events      
Averages and records for this station are not official NWS values.
T = Trace of Precipitation, MM = Missing Value Source: NWS Daily Summary

Daily Weather History Graph

Daily Weather History Graph

Search for Another Location

Airport:

Trip Planner

Search our weather history database for the weather conditions in past years. The results will help you decide how hot, cold, wet, or windy it might be!

Date:

Astronomy

Jul. 03, 2014 Rise Set
Actual Time 5:27 AM CDT 9:19 PM CDT
Civil Twilight 4:47 AM CDT 9:59 PM CDT
Nautical Twilight 3:52 AM CDT 10:54 PM CDT
Astronomical Twilight 2:29 AM CDT 12:16 AM CDT
Moon 11:54 AM CDT (7/3) No Moon Set
Length of Visible Light 17h 12m
Length of Day
15h 52m
Waxing Crescent, 33% of the Moon is Illuminated
Jul 3
Waxing Crescent
Jul 5
First Quarter
Jul 12
Full
Jul 18
Last Quarter
Jul 26
New

Hourly Weather History & Observations

Time (CDT) Temp. Windchill Dew Point Humidity Pressure Visibility Wind Dir Wind Speed Gust Speed Precip Events Conditions
12:11 AM 50.7 °F - 47.3 °F 88% 30.12 in 10.0 mi West 3.5 mph - N/A   Clear
12:31 AM 50.0 °F - 47.3 °F 90% 30.13 in 10.0 mi West 3.5 mph - N/A   Clear
12:50 AM 50.4 °F - 47.3 °F 89% 30.13 in 10.0 mi Calm Calm - N/A   Clear
1:11 AM 51.1 °F - 47.5 °F 87% 30.13 in 10.0 mi Calm Calm - N/A   Clear
1:31 AM 50.7 °F - 47.5 °F 89% 30.13 in 10.0 mi Calm Calm - N/A   Clear
1:50 AM 50.4 °F - 46.9 °F 88% 30.13 in 10.0 mi West 3.5 mph - N/A   Clear
2:11 AM 49.6 °F - 46.8 °F 90% 30.13 in 10.0 mi West 3.5 mph - N/A   Clear
2:31 AM 50.7 °F - 47.8 °F 90% 30.13 in 10.0 mi West 5.8 mph - N/A   Clear
2:50 AM 48.7 °F - 46.2 °F 91% 30.13 in 10.0 mi West 4.6 mph - N/A   Clear
3:11 AM 47.7 °F - 46.2 °F 95% 30.13 in 10.0 mi West 3.5 mph - N/A   Clear
3:31 AM 46.4 °F 45.2 °F 45.5 °F 97% 30.14 in 10.0 mi West 3.5 mph - N/A   Clear
3:50 AM 46.4 °F 45.2 °F 45.3 °F 96% 30.14 in 10.0 mi West 3.5 mph - N/A   Clear
4:11 AM 47.1 °F - 45.5 °F 94% 30.14 in 10.0 mi West 3.5 mph - N/A   Clear
4:31 AM 47.7 °F - 45.5 °F 92% 30.14 in 10.0 mi West 4.6 mph - N/A   Clear
4:51 AM 48.4 °F - 46.6 °F 93% 30.15 in 10.0 mi West 4.6 mph - N/A   Clear
5:11 AM 45.7 °F 44.4 °F 44.6 °F 96% 30.15 in 10.0 mi West 3.5 mph - N/A   Clear
5:31 AM 47.1 °F - 45.7 °F 95% 30.16 in 10.0 mi West 3.5 mph - N/A   Clear
5:50 AM 46.8 °F - 45.0 °F 93% 30.16 in 10.0 mi West 3.5 mph - N/A   Clear
6:11 AM 46.4 °F - 45.5 °F 97% 30.17 in 10.0 mi Calm Calm - N/A   Clear
6:30 AM 48.4 °F - 46.9 °F 95% 30.17 in 10.0 mi WNW 3.5 mph - N/A   Clear
6:51 AM 51.4 °F - 48.9 °F 91% 30.18 in 10.0 mi WNW 4.6 mph - N/A   Clear
7:11 AM 53.6 °F - 50.0 °F 88% 30.18 in 10.0 mi NW 3.5 mph - N/A   Clear
7:31 AM 55.4 °F - 50.9 °F 85% 30.19 in 10.0 mi WNW 4.6 mph - N/A   Clear
7:50 AM 56.7 °F - 50.9 °F 81% 30.19 in 10.0 mi WNW 4.6 mph - N/A   Clear
8:11 AM 58.8 °F - 51.6 °F 77% 30.19 in 10.0 mi NW 4.6 mph - N/A   Clear
8:50 AM 62.8 °F - 52.0 °F 68% 30.19 in 10.0 mi NNW 4.6 mph - N/A   Clear
9:11 AM 64.4 °F - 51.6 °F 63% 30.19 in 10.0 mi North 3.5 mph - N/A   Clear
9:31 AM 65.1 °F - 49.5 °F 57% 30.19 in 10.0 mi NW 5.8 mph - N/A   Clear
9:50 AM 66.4 °F - 50.5 °F 57% 30.19 in 10.0 mi NNW 5.8 mph - N/A   Clear
10:11 AM 66.2 °F - 48.6 °F 53% 30.19 in 10.0 mi WNW 4.6 mph - N/A   Clear
10:31 AM 67.1 °F - 48.6 °F 51% 30.19 in 10.0 mi North 5.8 mph - N/A   Clear
10:50 AM 67.6 °F - 48.7 °F 51% 30.20 in 10.0 mi North 6.9 mph - N/A   Clear
11:11 AM 68.0 °F - 48.9 °F 50% 30.20 in 10.0 mi North 5.8 mph - N/A   Scattered Clouds
11:31 AM 67.3 °F - 48.2 °F 50% 30.20 in 10.0 mi West 4.6 mph - N/A   Mostly Cloudy
11:50 AM 69.1 °F - 47.7 °F 46% 30.20 in 10.0 mi WNW 9.2 mph - N/A   Scattered Clouds
12:11 PM 69.3 °F - 45.9 °F 43% 30.20 in 10.0 mi NNE 5.8 mph - N/A   Scattered Clouds
12:31 PM 69.8 °F - 45.1 °F 41% 30.21 in 10.0 mi NNE 4.6 mph - N/A   Scattered Clouds
12:50 PM 70.3 °F - 47.5 °F 44% 30.21 in 10.0 mi NNE 5.8 mph - N/A   Scattered Clouds
1:11 PM 70.5 °F - 44.1 °F 39% 30.19 in 10.0 mi Calm Calm - N/A   Scattered Clouds
1:31 PM 70.3 °F - 45.0 °F 40% 30.19 in 10.0 mi Calm Calm - N/A   Scattered Clouds
1:50 PM 68.0 °F - 46.4 °F 46% 30.19 in 7.0 mi Calm Calm - N/A   Scattered Clouds
2:11 PM 70.9 °F - 45.0 °F 39% 30.19 in 10.0 mi NNE 5.8 mph - N/A   Scattered Clouds
2:31 PM 68.7 °F - 45.0 °F 42% 30.19 in 10.0 mi NNW 4.6 mph - N/A   Scattered Clouds
2:50 PM 72.3 °F - 46.0 °F 39% 30.19 in 10.0 mi West 9.2 mph - N/A   Scattered Clouds
3:11 PM 72.3 °F - 45.5 °F 38% 30.19 in 10.0 mi NNW 5.8 mph - N/A   Scattered Clouds
3:31 PM 72.7 °F - 46.0 °F 39% 30.19 in 10.0 mi NNW 8.1 mph - N/A   Scattered Clouds
3:50 PM 71.8 °F - 43.3 °F 36% 30.19 in 10.0 mi NNW 3.5 mph - N/A   Scattered Clouds
4:11 PM 72.0 °F - 44.1 °F 37% 30.19 in 10.0 mi NE 4.6 mph - N/A   Scattered Clouds
4:31 PM 72.5 °F - 43.7 °F 36% 30.18 in 10.0 mi NNW 4.6 mph - N/A   Scattered Clouds
4:50 PM 73.2 °F - 43.9 °F 35% 30.18 in 10.0 mi North 4.6 mph - N/A   Scattered Clouds
5:11 PM 70.9 °F - 43.7 °F 38% 30.18 in 10.0 mi WNW 5.8 mph - N/A   Clear
5:31 PM 71.8 °F - 43.2 °F 36% 30.18 in 7.0 mi North 3.5 mph - N/A   Scattered Clouds
5:50 PM 69.8 °F - 43.7 °F 39% 30.17 in 10.0 mi North 5.8 mph - N/A   Clear
6:11 PM 71.8 °F - 43.5 °F 36% 30.17 in 10.0 mi NNE 5.8 mph - N/A   Clear
6:31 PM 71.1 °F - 42.8 °F 36% 30.17 in 7.0 mi Calm Calm - N/A   Clear
6:50 PM 71.6 °F - 43.9 °F 37% 30.17 in 10.0 mi North 3.5 mph - N/A   Clear
7:11 PM 71.2 °F - 43.3 °F 37% 30.17 in 10.0 mi NE 3.5 mph - N/A   Clear
7:31 PM 71.1 °F - 44.2 °F 38% 30.17 in 10.0 mi Calm Calm - N/A   Clear
7:50 PM 70.7 °F - 44.6 °F 39% 30.17 in 10.0 mi Calm Calm - N/A   Clear
8:11 PM 69.8 °F - 45.3 °F 41% 30.17 in 10.0 mi Calm Calm - N/A   Clear
8:31 PM 69.6 °F - 45.7 °F 42% 30.17 in 10.0 mi Calm Calm - N/A   Clear
8:51 PM 65.8 °F - 51.1 °F 59% 30.17 in 10.0 mi Calm Calm - N/A   Clear
9:11 PM 63.1 °F - 51.6 °F 66% 30.17 in 7.0 mi Calm Calm - N/A   Clear
9:51 PM 59.4 °F - 47.7 °F 65% 30.18 in 10.0 mi Calm Calm - N/A   Clear
10:11 PM 57.6 °F - 47.8 °F 70% 30.19 in 10.0 mi Calm Calm - N/A   Clear
10:31 PM 55.9 °F - 48.7 °F 77% 30.19 in 10.0 mi Calm Calm - N/A   Clear
10:50 PM 55.4 °F - 49.3 °F 80% 30.19 in 10.0 mi Calm Calm - N/A   Clear
11:11 PM 54.1 °F - 47.5 °F 78% 30.19 in 10.0 mi Calm Calm - N/A   Clear
11:31 PM 52.0 °F - 48.9 °F 89% 30.19 in 10.0 mi Calm Calm - N/A   Clear
11:50 PM 52.2 °F - 47.7 °F 85% 30.20 in 10.0 mi Calm Calm - N/A   Clear